Voltar ao catálogo

SL-8 DEB

AtivoUNKNOWN
NORAD 1634·DEBRIS·🇷🇺 Russia

Lançado Mar 15, 1965 de Baikonur Cosmodrome

Loading…

Próximas Passagens (próximas 24 horas)

TLE

AtualizadoSource: Space-Track

Época: Sep 14, 2026, 03:47 UTC

1 01634U 65020ED  26257.15810314 -.00000018  00000-0  13556-3 0  9995
2 01634  56.1551 181.2563 0852725 199.8279 156.7512 12.48579961773599

Acompanhe SL-8 DEB em tempo real com AllMySat

Download on the App Store